カタログに戻る

COSMOS 1430

運用中ナビゲーションLEO
NORAD 13762·PAYLOAD·🇷🇺 Russia

打ち上げ Jan 19, 1983 から Plesetsk Cosmodrome

Loading…

次のパス (今後24時間)

TLE

最新Source: Space-Track

元期: Sep 14, 2026, 19:32 UTC

1 13762U 83002B   26257.81441455 -.00000012  00000-0  26955-4 0  9991
2 13762  74.0272  19.2614 0020721 266.9399 260.3108 12.45726779985419

AllMySatでCOSMOS 1430をリアルタイム追跡

Download on the App Store